Location: Unspecified
(0.0000°N, 0.0000°E)
Time: 06:51:55
(UTC+00:00)

Courier 1B Rocket - Pass Details

Date: 14 December 2018
Orbit: 920 x 1202 km, 28.2° (Epoch: 16 June)

Event Time Altitude Azimuth Distance (km) Brightness Sun altitude
Rises 05:17:06 0° 236° (SW) 3,558 7.6 -8.6°
Reaches altitude 10° 05:19:43 10° 233° (SW) 2,606 7.0 -8.0°
Maximum altitude 05:25:56 71° 150° (SSE) 968 5.2 -6.6°
Drops below altitude 10° 05:32:16 10° 66° (ENE) 2,658 8.0 -5.1°
Sets 05:34:57 0° 64° (ENE) 3,632 8.7 -4.5°
